#timestamp,LO_Frequency,Hit 
1501167615.2,286046996.7,N
1501167635.1,286046998.8,N
1501167636.0,286046998.8,N
1501167655.8,286047001.1,N
1501167675.6,286047000.6,N
1501167695.4,286047002.2,N
1501167715.3,286046996.9,N
1501167735.1,286046997.9,N
1501167755.8,286046998.8,N
1501167775.7,286047000.0,N
1501167795.5,286047004.0,N
1501167815.3,286047002.9,N
1501167835.2,286047003.3,N
1501167855.9,286047003.0,N
1501167875.7,286047001.7,N
1501167895.6,286047000.5,N
1501167915.4,286047000.1,N
1501167935.2,286047000.1,N
1501167955.1,286047000.0,N
1501167956.0,286047000.0,N
1501167975.8,286047002.3,N
1501167995.6,286046997.3,N
1501168015.4,286046996.0,N
1501168035.3,286046998.9,N
1501168055.1,286046996.8,N
1501168075.8,286046997.0,N
1501168095.7,286046999.4,N
1501168115.5,286047000.2,N
1501168135.3,286047003.3,N
1501168155.2,286046999.7,N
1501168175.9,286046998.5,N
1501168195.7,286046999.0,N
1501168215.6,286046995.3,N
1501168235.4,286046993.7,N
1501168255.2,286046995.3,N
1501168275.0,286046997.6,N
1501168276.0,286046997.6,N
1501168295.8,286046992.5,N
1501168315.6,286046996.3,N
1501168335.4,286046997.9,N
1501168355.3,286046993.3,N
1501168375.1,286046993.4,N
1501168395.8,286046994.3,N
1501168415.7,286046993.8,N
1501168435.5,286046993.6,N
1501168455.3,286046997.5,N
1501168475.2,286046998.7,N
1501168495.9,286046996.9,N
1501168515.7,286046991.9,N
1501168535.6,286046993.5,N
1501168555.4,286046994.5,N
1501168575.2,286046992.0,N
1501168595.0,286046989.4,N
1501168595.9,286046989.4,N
1501168615.8,286046990.0,N
1501168635.6,286046987.7,N
1501168655.4,286046991.4,N
1501168675.3,286046991.2,N
1501168695.1,286046987.5,N
1501168715.8,286046986.3,N
1501168735.7,286046987.4,N
1501168755.5,286046988.0,N
1501168775.3,286046988.0,N
1501168795.2,286046987.8,N
1501168815.9,286046986.1,N
1501168835.7,286046989.2,N
1501168855.6,286046990.6,N
1501168875.4,286046994.5,N
1501168895.2,286046994.5,N
1501168915.0,286046992.3,N
1501168916.0,286046992.3,N
1501168935.8,286046994.8,N
1501168955.6,286046997.9,N
1501168975.4,286046997.3,N
1501168995.3,286046994.4,N
1501169015.1,286046994.0,N
1501169035.8,286046994.1,N
1501169055.7,286046996.2,N
1501169075.5,286046993.6,N
1501169095.3,286046995.9,N
1501169115.2,286046996.1,N
1501169135.9,286046996.1,N
1501169155.7,286046993.5,N
1501169175.6,286046995.3,N
1501169195.4,286046999.2,N
1501169215.2,286047002.5,N
1501169235.0,286047000.1,N
1501169235.9,286047000.1,N
1501169255.8,286046998.0,N
1501169275.6,286046995.0,N
1501169295.4,286046999.6,N
1501169315.3,286046993.4,N
1501169335.1,286046999.0,N
1501169336.0,286046999.0,N
1501169355.8,286046997.2,N
1501169375.7,286046999.4,N
1501169395.5,286047002.7,N
1501169415.3,286047000.3,N
1501169435.2,286046998.1,N
1501169455.9,286046999.3,N
1501169475.7,286046999.5,N
1501169495.6,286046998.4,N
1501169515.4,286046995.9,N
1501169535.2,286046996.1,N
1501169555.0,286046997.6,N
1501169555.9,286046997.6,N
1501169575.8,286046992.1,N
1501169595.6,286046993.9,N
1501169615.4,286046993.7,N
1501169635.3,286046996.2,N
1501169655.1,286046999.6,N
1501169675.8,286047000.5,N
1501169695.7,286047000.0,N
1501169715.5,286046997.0,N
1501169735.3,286046999.1,N
1501169755.2,286046999.6,N
1501169775.9,286047000.4,N
1501169795.7,286046997.0,N
1501169815.6,286046997.4,N
1501169835.4,286046998.7,N
1501169855.2,286047003.9,N
1501169875.1,286047003.2,N
1501169876.0,286047003.2,N
1501169895.8,286047003.4,N
1501169915.6,286047002.5,N
1501169935.4,286047003.3,N
1501169955.3,286047002.0,N
1501169975.1,286046999.7,N
1501169995.8,286046998.8,N
1501170015.7,286046999.4,N
1501170035.5,286047002.3,N
1501170055.3,286047002.6,N
1501170075.2,286047004.0,N
1501170095.9,286047002.4,N
1501170115.7,286046995.7,N
1501170135.6,286046993.9,N
1501170155.4,286046999.6,N
1501170175.2,286046998.8,N
1501170195.0,286047000.7,N
1501170196.0,286047000.7,N
1501170215.8,286047002.8,N
1501170235.6,286046997.7,N
1501170255.4,286046993.7,N
1501170275.3,286046997.6,N
1501170295.1,286046998.4,N
1501170315.8,286047000.6,N
1501170335.7,286046999.2,N
1501170355.5,286046999.5,N
1501170375.3,286046995.0,N
1501170395.2,286046994.1,N
1501170415.9,286046992.1,N
1501170435.7,286046993.4,N
1501170455.6,286046994.1,N
1501170475.4,286046994.2,N
1501170495.2,286046990.2,N
1501170515.1,286046992.9,N
1501170516.0,286046992.9,N
1501170535.8,286046993.7,N
1501170555.6,286046988.6,N
1501170575.5,286046987.4,N
1501170595.3,286046989.0,N
1501170615.1,286046990.8,N
1501170635.8,286046992.7,N
1501170655.7,286046996.1,N
1501170675.5,286046993.8,N
1501170695.3,286046991.9,N
1501170715.2,286046992.5,N
1501170735.0,286046991.9,N
1501170735.9,286046991.9,N
1501170755.7,286046994.2,N
1501170775.6,286046996.0,N
1501170795.4,286046992.9,N
1501170815.2,286046992.1,N
1501170835.1,286046994.0,N
1501170836.0,286046994.0,N
1501170855.8,286046990.1,N
1501170875.6,286046988.5,N
1501170895.5,286046989.0,N
1501170915.3,286046990.8,N
1501170935.1,286046992.6,N
1501170955.9,286046992.2,N
1501170975.7,286046989.7,N
1501170995.5,286046987.0,N
1501171015.4,286046985.3,Y
1501171035.2,286046992.4,N
1501171055.0,286046994.5,N
1501171055.9,286046994.5,N
1501171075.8,286046994.4,N
1501171095.6,286046992.0,N
1501171115.4,286046996.7,N
1501171135.2,286046999.3,N
1501171155.1,286046995.3,N
1501171156.0,286046995.3,N
1501171175.8,286046996.4,N
1501171195.6,286046992.3,N
